This is the latest recevied weather packets stored in our database for station/object EB2EMZ-3. If no packets are shown the sender has not sent any weather packets the latest 10 day(s).
| Time | Temp. | Humidity | Pressure | Rain* | Wind** | Luminosity | Snow |
|---|---|---|---|---|---|---|---|
| 1777536897 | 21.67° C | 59% | 1015.5 hPa | 0 mm | - | - | - |
| 1777536597 | 21.67° C | 59% | 1015.5 hPa | 0 mm | - | - | - |
| 1777536297 | 21.11° C | 59% | 1015.4 hPa | 0 mm | - | - | - |
| 1777535997 | 21.11° C | 59% | 1015.4 hPa | 0 mm | - | - | - |
| 1777535697 | 21.11° C | 59% | 1015.5 hPa | 0 mm | - | - | - |
| 1777535397 | 21.11° C | 59% | 1015.3 hPa | 0 mm | - | - | - |
| 1777535097 | 20.56° C | 59% | 1015.2 hPa | 0 mm | - | - | - |
| 1777534797 | 20.56° C | 59% | 1015 hPa | 0 mm | - | - | - |
| 1777534497 | 20° C | 60% | 1014.8 hPa | 0 mm | - | - | - |
| 1777534197 | 20° C | 61% | 1014.7 hPa | 0 mm | - | - | - |
| 1777533897 | 20° C | 62% | 1014.8 hPa | 0 mm | - | - | - |
| 1777533597 | 19.44° C | 63% | 1014.8 hPa | 0 mm | - | - | - |
| 1777533297 | 18.89° C | 66% | 1014.8 hPa | 0 mm | - | - | - |
| 1777532997 | 18.89° C | 66% | 1014.9 hPa | 0 mm | - | - | - |
| 1777532697 | 18.33° C | 68% | 1014.9 hPa | 0 mm | - | - | - |
| 1777532397 | 17.78° C | 69% | 1014.9 hPa | 0 mm | - | - | - |
| 1777532097 | 16.67° C | 70% | 1014.9 hPa | 0 mm | - | - | - |
| 1777531797 | 16.67° C | 70% | 1014.8 hPa | 0 mm | - | - | - |
| 1777531497 | 16.67° C | 71% | 1014.8 hPa | 0 mm | - | - | - |
| 1777531197 | 16.11° C | 72% | 1014.7 hPa | 0 mm | - | - | - |
| 1777530897 | 15.56° C | 72% | 1014.8 hPa | 0 mm | - | - | - |
| 1777530597 | 15.56° C | 72% | 1014.8 hPa | 0 mm | - | - | - |
| 1777530297 | 15.56° C | 73% | 1014.8 hPa | 0 mm | - | - | - |
| 1777529997 | 15.56° C | 73% | 1014.6 hPa | 0 mm | - | - | - |
| 1777529697 | 15.56° C | 73% | 1014.4 hPa | 0 mm | - | - | - |
* Rain latest hour (hover to see other rain measurements)
** Current wind speed in m/s (hover to see current wind gust speed)